This demonstration page uses our WeatherBlox Daily Observations layout. Learn more.

Left ArrowRight Arrow

39.51506, -84.39828

Hourly Observations for June 17, 2020

Temp ( °F °C ) Dew Point ( °F °C ) Humidity (%) Winds ( mph kmh ) Pressure ( in mb ) Visibility ( mi km ) Precip ( " mm )
12:15 am 00:15 Clear N/A N/A N/A Calm N/A 10 16.0934 0 0
12:35 am 00:35 Clear N/A N/A N/A Calm N/A 10 16.0934 0 0
12:55 am 00:55 Clear N/A N/A N/A Calm N/A 10 16.0934 0 0
1:15 am 01:15 Clear N/A N/A N/A Calm N/A 10 16.0934 0 0
1:35 am 01:35 Clear 57 14 55 13 94 94 NNE 3 6 30.22 1023 10 16.0934 0 0
1:55 am 01:55 Clear N/A N/A N/A N 5 7 N/A 10 16.0934 0 0
2:15 am 02:15 Clear 59 15 55 13 88 88 Calm 30.22 1023 10 16.0934 0 0
2:35 am 02:35 Clear N/A N/A N/A Calm N/A 10 16.0934 0 0
2:55 am 02:55 Clear N/A N/A N/A Calm N/A 10 16.0934 0 0
3:15 am 03:15 Clear 57 14 55 13 94 94 N 3 6 30.21 1023 10 16.0934 0 0
3:35 am 03:35 Clear N/A N/A N/A Calm N/A 10 16.0934 0 0
3:55 am 03:55 Clear N/A N/A N/A Calm N/A 10 16.0934 0 0
4:15 am 04:15 Clear N/A N/A N/A Calm N/A 10 16.0934 0 0
4:35 am 04:35 Clear N/A N/A N/A Calm N/A 10 16.0934 0 0
4:55 am 04:55 Clear N/A N/A N/A Calm N/A 10 16.0934 0 0
5:15 am 05:15 Clear N/A N/A N/A Calm N/A 10 16.0934 0 0
5:35 am 05:35 Clear 55 12.6 54 12.3 98 98 Calm 30.2 1023 10 16.0934 0 0
5:55 am 05:55 Clear N/A N/A N/A Calm N/A 10 16.0934 0 0
6:15 am 06:15 Sunny N/A N/A N/A Calm N/A 10 16.0934 0 0
6:35 am 06:35 Sunny N/A N/A N/A Calm N/A 10 16.0934 0 0
6:55 am 06:55 Sunny N/A N/A N/A Calm N/A 10 16.0934 0 0
7:15 am 07:15 Sunny N/A N/A N/A Calm N/A 10 16.0934 0 0
7:35 am 07:35 Sunny N/A N/A N/A Calm N/A 10 16.0934 0 0
7:55 am 07:55 Sunny N/A N/A N/A Calm N/A 10 16.0934 0 0
8:15 am 08:15 Sunny N/A N/A N/A Calm N/A 10 16.0934 0 0
8:35 am 08:35 Sunny N/A N/A N/A Calm N/A 10 16.0934 0 0
8:55 am 08:55 Sunny N/A N/A N/A N 5 7 N/A 10 16.0934 0 0
9:15 am 09:15 Sunny N/A N/A N/A NNE 5 7 N/A 10 16.0934 0 0
9:35 am 09:35 Sunny 71 21.8 59 15.2 66 66 NE 6 9 30.2 1023 10 16.0934 0 0
9:55 am 09:55 Sunny 74 23.2 59 14.9 60 60 NE 5 7 30.2 1023 10 16.0934 0 0
10:15 am 10:15 Sunny 75 24 58 14.2 54 54 N 8 13 30.2 1023 10 16.0934 0 0
10:35 am 10:35 Sunny 76 24.4 58 14.5 54 54 NNE 12 19 30.18 1022 10 16.0934 0 0
10:55 am 10:55 Sunny 77 24.9 59 15.1 55 55 NNE 7 11 30.18 1022 10 16.0934 0 0
11:15 am 11:15 Sunny 78 25.6 58 14.6 51 51 NNE 8 13 30.17 1022 10 16.0934 0 0
11:35 am 11:35 Sunny 78 25.4 58 14.4 51 51 ENE 9 15 30.17 1022 10 16.0934 0 0
11:55 am 11:55 Sunny 79 26 57 14 48 48 ENE 12 19 30.17 1022 10 16.0934 0 0
12:15 pm 12:15 Sunny 80 26.8 59 15.1 49 49 NE 10 17 30.17 1022 10 16.0934 0 0
12:35 pm 12:35 Mostly Cloudy 79 26.1 58 14.6 49 49 ENE 8 13 30.16 1021 10 16.0934 0 0
12:55 pm 12:55 Partly Cloudy 79 26 57 14 48 48 E 12 19 30.16 1021 10 16.0934 0 0
1:15 pm 13:15 Mostly Cloudy 80 26.9 57 14.1 45 45 ENE 12 19 30.16 1021 10 16.0934 0 0
1:35 pm 13:35 Partly Cloudy 81 27 59 15 48 48 ENE 12 19 30.15 1021 10 16.0934 0 0
1:55 pm 13:55 Sunny 80 26.6 56 13.5 44 44 ENE 8 13 30.15 1021 10 16.0934 0 0
2:15 pm 14:15 Sunny 79 26 55 13 45 45 NE 12 19 30.14 1021 10 16.0934 0 0
2:35 pm 14:35 Sunny 81 27.1 56 13.2 42 42 ENE 15 24 30.14 1021 10 16.0934 0 0
2:55 pm 14:55 Sunny 82 27.6 57 13.8 43 43 ENE 10 17 30.13 1020 10 16.0934 0 0
3:15 pm 15:15 Sunny 81 27.4 55 13 41 41 NE 10 17 30.12 1020 7 11.26538 0 0
3:35 pm 15:35 Sunny 82 28 55 13 40 40 ENE 13 20 30.11 1020 10 16.0934 0 0
3:55 pm 15:55 Sunny 82 27.7 55 12.9 40 40 E 13 20 30.11 1020 10 16.0934 0 0
4:15 pm 16:15 Sunny 83 28.2 56 13.2 40 40 E 9 15 30.1 1019 10 16.0934 0 0
4:35 pm 16:35 Sunny 82 28 55 13 40 40 ENE 10 17 30.09 1019 10 16.0934 0 0
4:55 pm 16:55 Partly Cloudy 82 27.6 55 13 41 41 NE 8 13 30.08 1019 10 16.0934 0 0
5:15 pm 17:15 Sunny 82 28 55 13 40 40 E 10 17 30.07 1018 10 16.0934 0 0
5:35 pm 17:35 Sunny 82 27.5 56 13.6 42 42 ENE 9 15 30.06 1018 10 16.0934 0 0
5:55 pm 17:55 Partly Cloudy 81 27 57 13.7 44 44 ENE 9 15 30.06 1018 10 16.0934 0 0
6:15 pm 18:15 Sunny 80 26.9 57 13.7 44 44 ENE 7 11 30.05 1018 10 16.0934 0 0
6:35 pm 18:35 Sunny 81 27.4 56 13.5 42 42 ENE 9 15 30.05 1018 10 16.0934 0 0
6:55 pm 18:55 Sunny 82 27.5 55 12.7 40 40 E 12 19 30.05 1018 10 16.0934 0 0
7:15 pm 19:15 Sunny 81 27 54 12 39 39 ENE 10 17 30.06 1018 10 16.0934 0 0
7:35 pm 19:35 Sunny 80 26.5 54 12.2 41 41 E 10 17 30.06 1018 10 16.0934 0 0
7:55 pm 19:55 Sunny 79 26.1 53 11.8 41 41 E 12 19 30.06 1018 10 16.0934 0 0
8:15 pm 20:15 Sunny 78 25.7 52 10.9 40 40 E 9 15 30.06 1018 10 16.0934 0 0
8:35 pm 20:35 Sunny 78 25.3 50 10.2 39 39 E 8 13 30.06 1018 10 16.0934 0 0
8:55 pm 20:55 Sunny 75 23.8 51 10.4 43 43 E 7 11 30.07 1018 10 16.0934 0 0
9:15 pm 21:15 Clear 73 22.8 51 10.8 47 47 E 8 13 30.08 1019 10 16.0934 0 0
9:35 pm 21:35 Clear 72 22.4 52 11.1 49 49 E 5 7 30.08 1019 10 16.0934 0 0
9:55 pm 21:55 Clear 71 21.4 53 11.8 54 54 ENE 3 6 30.09 1019 10 16.0934 0 0
10:15 pm 22:15 Clear 71 21.4 54 12.4 57 57 Calm 30.1 1019 10 16.0934 0 0
10:35 pm 22:35 Clear 67 19.5 57 13.8 70 70 Calm 30.1 1019 10 16.0934 0 0
10:55 pm 22:55 Clear 64 18 57 14 78 78 Calm 30.11 1020 10 16.0934 0 0
11:15 pm 23:15 Clear 65 18.1 56 13.6 75 75 Calm 30.11 1020 10 16.0934 0 0
11:35 pm 23:35 Clear 64 17.6 56 13.1 75 75 Calm 30.11 1020 10 16.0934 0 0
11:55 pm 23:55 Mostly Cloudy 63 17 57 13.7 81 81 Calm 30.11 1020 10 16.0934 0 0

Powered by AerisWeather